Tracking 34717 objects as of 14-Jul-2026
HD Live streaming from Space Station
objects crossing your sky now

CZ-4 DEB

Track CZ-4 DEB now!
10-day predictions


NORAD ID: 20853
Int'l Code: 1990-081R
Perigee: 662.5 km
Apogee: 683.1 km
Inclination: 98.2 °
Period: 98.1 minutes
Semi major axis: 7043 km
RCS: 0.6316 m2 (medium)
Launch date: September 3, 1990
Source: People's Republic of China (PRC)
Launch site: Taiyaun Space Center, China (TSC)

Note: This is SATELLITE DEBRIS
Your satellite tracking list
Your tracking list is empty




NASA's NSSDC Master Catalog

Two Line Element Set (TLE):
1 20853U 90081R   26194.62807588  .00003914  00000-0  68175-3 0  9999
2 20853  98.2403 204.4607 0014641 182.6550 299.6866 14.68567351862280
Source of the keplerian elements: AFSPC